RH
59 59 58 58 57 57 57 56 56 58 58 57 57 56 60 62 63 78 92 95 98 99 89 86 86 94 95 94 91 87 90 88 98 96 95 92 93 88 92 82 85 92 87 89 86 88 85 63 56 64 61 64 62 62
59 59 58 58 58 60 60 60 60 60 60 59 60 59 58 62 63 68 98 90 96 99 92 71 64 60 70 67 77 88 85 93 93 98 98 95 90 87 94 97 65 93 80 95 73 68 65 65 70 63 67 68 68 70
61 61 60 59 58 59 59 59 58 58 58 57 58 58 58 61 63 65 96 96 100 99 96 97 92 72 70 68 65 95 81 82 90 90 96 96 97 94 94 86 92 88 92 96 81 70 65 63 59 56 56 60 60 57
61 61 60 60 60 60 59 59 59 59 60 58 59 62 64 63 63 63 97 97 97 99 99 84 63 70 62 69 75 76 75 79 90 97 97 97 95 96 95 89 95 89 94 95 85 73 59 56 55 56 50 46 46 44
62 62 62 62 63 62 61 61 60 60 59 60 63 64 64 65 64 78 98 97 93 91 97 93 84 69 81 85 98 97 95 96 98 98 98 97 96 98 95 88 95 94 90 96 84 68 66 63 54 46 45 45 43 43
65 66 65 62 62 63 62 62 61 60 60 66 64 64 63 64 65 94 94 94 90 99 100 98 83 88 82 97 99 99 98 98 99 98 98 98 98 98 97 95 95 93 84 82 83 53 52 49 46 42 44 44 41 41
66 65 63 64 64 62 62 61 61 61 63 64 63 64 63 65 92 96 90 85 90 98 98 98 92 86 99 96 99 99 99 99 98 98 98 97 97 97 97 95 96 95 78 66 50 49 63 52 52 43 43 43 45 41
64 65 65 65 63 63 62 61 63 63 64 64 65 64 62 68 78 94 94 78 92 95 96 98 92 90 94 97 97 98 98 98 96 98 97 97 95 97 96 96 97 95 75 63 57 53 54 50 50 51 48 49 53 53
66 66 67 65 64 64 62 64 64 65 64 66 66 68 86 95 98 98 80 94 98 97 98 97 96 96 89 95 98 97 98 96 98 96 96 83 90 96 97 96 96 97 89 72 60 58 58 58 56 53 51 51 54 58
67 68 68 66 65 64 63 66 66 65 66 68 83 92 92 96 78 84 98 98 99 99 98 97 81 96 96 94 95 96 98 97 97 96 89 94 96 95 96 96 97 97 97 87 79 73 64 67 64 61 59 58 64 71
68 68 68 66 65 61 67 67 67 66 73 92 99 98 95 80 90 94 94 94 95 95 94 97 96 95 96 96 95 96 97 95 96 95 86 95 95 95 96 96 96 96 96 96 94 92 89 88 88 87 88 84 84 84
68 69 69 65 61 67 67 67 64 87 97 90 87 91 89 87 90 77 98 91 94 97 91 95 94 96 96 97 97 95 97 91 97 94 91 96 96 96 95 96 96 95 94 95 94 94 93 93 92 91 90 90 89 87
70 70 66 61 65 68 67 66 63 67 80 86 85 83 85 90 91 95 100 92 96 87 96 92 93 96 92 86 97 96 90 98 88 93 95 96 96 95 96 94 92 83 79 85 86 81 79 81 80 79 81 79 76 77
73 72 65 57 68 66 67 66 64 75 82 91 88 91 95 99 100 98 96 96 92 97 92 92 94 96 87 93 96 90 97 86 95 95 96 96 96 95 89 76 73 76 71 74 75 73 76 77 80 78 78 76 76 80
71 69 63 69 68 66 67 67 65 85 91 95 89 100 99 92 94 98 95 96 84 88 93 92 96 85 92 90 91 83 86 97 90 94 95 95 92 73 72 70 74 73 73 75 74 74 73 74 77 80 77 75 74 75
67 65 74 71 66 67 67 71 79 89 93 91 93 95 89 95 95 94 91 92 84 88 87 90 97 95 97 96 90 98 91 98 96 95 94 91 76 76 77 75 76 74 76 78 79 80 82 84 87 89 88 88 87 87
69 82 70 70 67 67 70 84 89 96 95 96 98 98 94 98 96 89 69 64 55 90 96 94 93 99 93 93 96 94 96 95 92 93 87 75 78 81 80 77 75 76 80 82 82 82 84 82 86 90 96 97 93 91
91 84 75 66 72 66 80 94 91 91 99 98 97 98 89 84 82 73 65 58 74 88 85 99 81 94 98 96 94 95 94 94 89 85 83 81 79 77 75 83 83 82 86 87 89 92 94 94 95 96 97 96 96 94
76 80 66 68 77 89 89 90 92 97 97 98 97 98 92 74 62 64 58 56 62 62 83 92 92 98 94 94 95 95 94 77 83 83 86 88 88 85 81 80 80 87 91 94 94 97 97 97 97 98 99 97 98 98
65 65 66 70 68 88 82 93 95 93 99 96 97 97 96 88 65 65 61 55 67 88 91 95 95 93 93 93 93 92 72 64 68 80 84 85 86 90 88 88 88 84 88 88 90 86 96 95 96 97 90 95 99 99
75 80 68 72 92 93 96 100 96 100 100 97 97 97 96 95 88 84 84 70 87 96 96 95 94 93 92 88 75 74 78 73 81 77 84 90 86 88 90 90 92 83 96 98 100 98 93 96 95 97 100 98 97 98
84 67 90 81 87 88 94 100 98 98 97 97 94 96 97 97 96 96 92 91 96 95 95 93 92 86 82 89 87 83 79 78 80 82 86 83 90 90 91 92 91 99 98 98 98 99 96 95 92 98 97 98 96 97
67 70 89 88 72 79 83 97 89 98 89 92 96 93 96 97 97 92 97 96 94 94 90 86 81 78 82 80 79 83 84 82 88 89 87 91 93 87 91 92 94 100 96 94 94 98 98 88 97 95 97 98 98 98
69 90 95 91 89 86 92 97 96 97 99 100 100 98 97 100 95 93 97 96 93 83 85 87 85 83 83 88 92 93 93 88 93 95 95 95 93 96 90 90 91 94 94 96 97 97 96 96 92 98 97 100 97 98
73 83 88 96 97 89 98 99 100 96 100 100 100 99 98 98 96 97 98 99 97 96 90 87 87 90 97 98 94 92 90 94 97 99 98 98 98 97 93 91 86 90 94 99 96 97 96 96 96 98 98 99 99 98
98 98 95 100 98 90 99 100 100 100 100 100 100 99 99 94 93 98 97 97 98 97 97 98 97 95 92 90 96 96 98 98 98 98 97 98 100 100 100 100 99 94 93 97 99 98 98 97 98 97 96 94 91 96
94 99 98 82 96 90 96 89 85 97 100 100 100 98 96 99 97 93 95 95 98 97 96 94 94 95 96 95 93 97 97 99 98 95 97 98 98 99 98 99 99 93 93 97 97 97 97 95 95 94 95 94 96 97
96 96 99 98 97 97 98 100 100 100 100 95 93 97 98 90 94 96 97 98 99 99 98 98 98 99 100 99 100 100 99 97 98 98 97 96 98 99 100 98 98 86 89 92 92 94 95 95 95 95 96 96 95 96
96 94 93 100 99 100 100 100 100 99 92 98 97 99 99 97 98 98 96 98 99 98 98 99 98 100 100 100 100 100 100 98 92 99 99 98 98 94 97 94 94 95 96 96 88 85 89 92 95 96 96 96 95 96
97 97 96 100 99 100 99 99 100 99 98 97 97 98 98 98 99 98 99 100 99 100 100 100 100 100 100 100 100 98 99 100 99 98 100 99 97 92 93 95 95 96 97 98 96 94 87 87 88 94 94 94 95 95
95 97 98 99 100 99 98 99 99 96 98 100 100 99 99 99 97 99 100 100 100 100 100 100 100 100 100 100 100 100 98 99 100 100 100 99 98 97 95 94 95 97 98 99 98 97 97 97 96 95 94 95 95 95
97 100 99 100 99 98 98 99 100 100 100 100 100 100 99 98 100 98 99 100 100 100 99 100 100 99 98 100 100 99 88 99 98 98 98 98 96 94 94 95 97 99 100 100 97 99 99 99 99 97 97 95 96 96
100 99 99 99 99 98 98 98 98 98 99 100 100 100 100 99 97 95 98 100 98 97 98 98 98 98 97 97 97 97 89 98 100 89 91 84 80 79 86 97 98 99 100 99 99 100 100 99 100 97 97 97 96 96
Wind_Speed
16 17 18 19 20 21 21 21 22 23 23 23 24 24 24 24 23 10 4 6 4 3 7 9 6 6 2 3 9 4 4 3 1 4 3 3 5 2 3 5 4 5 9 8 9 11 15 3 3 3 3 7 5 5
17 19 20 21 22 23 23 24 25 25 25 26 26 28 26 25 24 18 3 2 3 4 8 7 15 16 14 22 8 5 7 3 4 1 2 3 5 3 3 4 3 5 6 3 12 8 2 3 1 6 5 7 6 1
18 20 21 22 23 24 25 26 26 27 27 28 27 27 27 27 26 18 3 3 2 2 5 2 8 8 11 14 14 8 7 8 6 3 4 4 6 3 2 3 4 6 4 5 3 0 2 3 4 5 5 2 4 11
18 20 22 23 24 25 27 27 28 28 28 28 29 30 30 29 26 19 3 3 2 2 3 8 4 8 4 7 11 14 16 5 3 4 5 4 5 3 2 5 9 6 8 5 5 2 1 10 6 2 7 9 15 15
19 21 23 24 25 26 27 28 29 29 28 30 30 30 30 28 24 8 1 3 2 3 4 6 8 4 4 3 12 14 13 11 5 4 4 3 3 4 4 4 2 4 5 3 4 3 5 4 3 6 13 14 15 20
21 23 24 26 27 28 29 29 28 28 29 30 31 29 27 22 15 2 3 3 2 2 3 5 4 4 4 10 12 8 7 5 4 4 2 3 3 3 3 2 7 12 12 12 5 8 13 9 10 12 18 18 18 21
22 24 25 27 28 29 29 27 27 29 31 31 30 25 17 15 2 2 4 4 5 1 3 5 4 3 5 5 4 3 5 3 2 2 2 3 2 3 2 4 9 13 12 7 5 12 11 9 12 16 20 21 24 21
23 24 26 27 28 28 27 26 29 30 31 30 26 16 8 9 7 5 4 4 2 2 1 2 5 4 5 3 4 4 3 2 5 2 2 2 3 2 3 5 5 8 9 12 13 15 15 14 17 18 18 19 22 20
23 25 26 28 28 27 24 29 29 30 29 26 16 6 4 5 3 2 9 3 1 2 1 1 5 5 5 2 3 2 1 4 2 4 4 4 5 7 8 8 9 9 8 9 14 17 18 20 20 19 19 19 23 20
24 25 27 28 27 24 25 29 30 27 25 14 6 5 5 3 10 4 1 0 1 1 1 1 3 4 3 2 2 4 2 3 3 4 2 5 4 11 13 14 11 9 9 12 16 18 20 21 21 21 20 17 18 17
24 26 27 27 25 22 28 28 26 22 8 4 5 2 4 9 4 4 3 4 3 4 3 3 3 6 1 3 3 4 2 2 4 5 3 5 6 10 14 15 14 14 15 16 16 16 18 19 19 18 18 17 16 16
24 26 27 25 20 26 27 26 23 5 2 2 4 3 4 6 5 8 2 5 5 4 5 4 6 4 3 3 2 4 3 4 4 3 4 4 7 11 13 15 16 16 18 19 19 19 20 20 17 16 15 14 14 14
24 26 27 19 23 27 27 23 19 13 4 3 5 7 6 6 10 7 7 6 6 6 3 9 9 3 2 2 2 3 6 4 1 5 3 4 7 10 12 12 16 16 17 18 19 17 18 17 16 14 13 11 12 12
25 26 25 15 26 27 24 21 16 6 6 6 6 8 5 6 3 2 2 4 4 4 8 9 5 3 2 3 3 5 3 4 5 4 4 4 7 9 10 10 13 14 14 16 15 16 16 15 14 14 13 10 10 10
25 28 15 13 28 27 21 17 12 5 5 5 7 4 4 3 4 3 5 5 5 7 5 5 2 2 3 4 4 3 6 5 4 3 2 3 7 9 10 11 11 11 11 12 11 12 12 12 12 12 10 9 9 9
27 15 5 26 27 22 17 7 6 4 6 6 7 5 5 4 3 4 7 8 4 5 5 2 1 4 5 2 5 5 4 3 3 3 3 4 8 8 9 9 10 10 10 10 10 10 10 10 9 7 8 8 8 7
16 2 20 23 24 11 16 5 5 8 5 6 2 2 5 3 5 7 8 5 6 5 1 2 6 2 2 4 4 5 4 4 6 6 6 8 8 8 8 9 10 10 10 10 9 9 9 8 7 8 9 6 6 6
3 9 16 21 14 5 4 6 6 6 4 2 1 3 4 4 5 6 5 5 4 3 3 3 3 8 5 4 4 3 5 7 7 7 7 7 8 9 8 9 9 9 8 8 7 7 7 7 7 5 5 4 4 5
11 5 17 14 5 5 5 6 5 4 2 1 2 2 3 5 6 5 5 5 4 5 4 4 6 4 4 4 4 5 5 5 5 6 7 8 8 8 8 8 8 8 7 6 6 5 4 5 4 3 2 2 2 2
10 6 16 11 6 5 6 4 2 5 2 2 1 3 1 4 6 6 9 9 5 4 8 7 5 3 3 4 4 5 6 5 5 7 6 6 6 7 9 6 5 6 5 6 5 7 4 4 3 4 4 3 2 2
8 7 10 6 5 7 5 2 4 1 2 2 2 3 2 3 8 9 8 7 7 6 5 5 3 4 6 6 6 6 7 6 5 4 3 4 4 5 4 5 4 5 4 4 4 5 7 4 3 3 2 3 3 3
3 10 4 5 6 5 5 2 3 2 2 1 2 3 3 3 4 5 3 8 5 4 4 4 6 6 7 10 7 8 7 9 9 7 9 6 3 3 4 4 4 4 4 4 3 4 4 4 5 2 4 4 5 3
5 4 5 5 7 7 4 3 5 7 4 4 3 5 4 3 3 2 5 4 3 4 4 5 5 7 7 7 7 10 10 7 6 5 5 4 3 4 3 3 3 2 4 5 4 3 3 9 6 5 4 4 3 3
8 7 6 4 4 1 3 6 3 4 4 5 4 3 4 3 3 5 4 2 1 3 5 7 4 2 3 5 6 5 5 4 3 4 4 3 3 3 3 3 2 3 4 4 4 4 4 4 9 4 4 3 3 3
7 7 6 6 3 6 7 6 6 5 2 2 3 4 3 3 3 3 1 1 1 2 3 4 4 4 2 1 1 2 4 3 2 1 2 2 2 3 3 3 3 2 2 4 5 6 6 4 4 4 4 3 4 4
6 4 4 1 3 3 1 2 2 1 1 3 1 3 3 3 4 2 2 2 1 1 1 1 2 2 2 2 1 1 2 1 1 2 2 1 1 3 1 4 4 4 3 3 2 5 6 5 5 6 5 6 10 6
4 3 3 2 1 3 3 3 3 3 3 1 2 3 3 4 2 2 2 1 1 0 0 1 0 0 1 2 2 2 3 1 3 2 1 1 1 2 1 0 4 5 6 5 6 6 7 8 8 8 7 6 4 4
2 2 2 3 3 2 4 2 2 1 2 2 1 2 5 6 2 1 1 1 1 1 0 1 0 0 2 2 2 3 4 4 3 2 2 2 1 1 2 3 3 12 8 7 8 6 7 8 8 7 7 6 6 3
3 2 2 4 3 4 2 2 2 1 1 1 3 2 3 1 1 0 1 1 1 2 2 2 2 2 1 1 0 0 2 4 5 4 2 2 3 4 2 4 5 5 5 6 14 13 11 8 8 6 5 5 5 5
2 2 3 2 3 1 2 1 2 2 0 1 1 1 1 2 1 1 1 2 2 1 1 1 1 2 1 2 3 4 2 1 3 4 2 2 4 5 7 6 6 5 5 5 7 8 12 8 8 5 6 5 5 4
2 1 3 2 1 2 2 1 1 2 3 2 2 3 2 2 3 1 2 2 3 2 2 2 2 1 2 1 1 1 3 2 2 3 3 4 5 7 7 7 5 4 3 4 5 5 6 5 5 6 7 7 8 8
3 2 2 1 1 1 2 2 1 2 3 3 2 2 3 3 1 3 2 3 3 1 2 3 1 3 4 3 3 3 7 1 2 3 5 5 6 8 8 6 3 2 2 3 4 4 4 5 4 5 5 7 7 8
2 2 2 2 2 1 0 3 3 3 3 2 2 1 2 2 4 4 2 2 3 4 3 3 3 2 3 3 3 2 3 2 5 13 14 13 15 12 6 1 2 2 3 4 4 3 5 5 4 5 6 6 7 7
Wind_Direction
347 349 346 344 343 341 340 337 332 330 323 324 321 319 319 319 315 313 247 191 204 258 261 213 229 220 303 204 251 252 327 323 11 239 254 211 234 236 284 280 280 184 180 190 227 217 244 20 360 185 314 315 313 298
353 348 344 342 340 338 333 332 327 324 319 322 318 315 317 319 317 310 248 231 172 223 248 226 247 242 216 241 246 207 225 189 247 148 286 324 313 298 254 266 299 265 227 256 194 198 215 127 186 289 296 270 293 329
346 343 342 340 339 335 332 329 324 322 322 321 321 318 315 314 314 310 252 194 228 224 283 359 252 256 229 234 226 237 232 206 220 177 253 231 248 252 260 266 291 266 25 271 229 158 337 30 30 350 331 9 67 111
342 338 335 337 336 334 331 326 322 322 320 320 319 320 316 311 306 309 203 175 152 192 263 281 309 284 265 235 233 221 238 227 173 165 232 227 247 219 224 263 275 299 320 317 299 289 170 41 39 8 61 75 88 90
338 336 337 335 333 330 327 324 322 321 322 322 320 318 315 312 305 304 193 198 201 221 239 288 309 285 321 208 244 230 225 220 215 211 213 224 227 217 227 241 47 331 281 272 297 330 58 49 31 88 91 90 93 102
333 333 336 335 332 329 326 323 324 321 320 322 322 323 325 325 333 82 16 322 214 151 65 312 276 291 286 286 292 289 208 189 192 188 190 231 7 307 307 22 353 343 320 239 293 69 88 95 81 87 93 92 92 94
337 337 335 333 332 329 327 328 328 324 324 324 328 331 334 347 62 111 187 193 158 123 76 308 295 274 314 303 332 23 39 48 358 93 55 344 4 345 12 5 347 4 350 2 76 94 72 74 97 91 90 92 92 90
337 335 334 334 332 330 329 334 329 328 327 328 333 328 331 7 35 32 354 130 108 87 153 269 279 336 354 322 313 357 34 36 19 41 351 351 336 12 32 338 352 27 8 47 66 80 96 102 89 86 89 94 88 87
334 333 334 333 331 329 332 335 332 331 330 335 334 339 29 32 37 275 318 68 86 104 303 317 346 314 360 306 307 320 305 55 32 43 20 17 2 28 354 14 33 40 58 61 73 78 84 84 85 83 86 84 89 85
331 332 334 332 331 331 337 335 335 335 336 343 26 39 357 262 302 346 100 55 349 53 338 333 332 295 331 320 303 320 27 43 56 32 28 18 44 6 15 26 23 50 67 67 72 73 78 75 75 75 74 75 79 84
333 336 335 333 332 338 338 338 339 345 7 23 17 334 251 326 49 28 26 65 329 11 360 349 309 320 312 327 321 358 47 25 50 15 52 16 14 356 21 33 29 39 50 61 71 63 67 72 72 71 66 66 70 76
336 336 336 333 342 340 340 342 346 17 195 221 310 354 359 29 27 68 332 336 30 10 347 344 323 300 331 320 314 358 72 41 53 349 49 34 347 356 29 34 34 41 51 53 52 60 56 54 56 61 59 58 63 69
335 339 336 336 344 341 343 347 350 355 54 37 37 41 35 319 34 55 347 327 342 338 336 330 326 320 321 330 13 12 65 65 78 40 48 13 345 19 27 32 40 39 49 54 55 58 63 65 60 62 69 60 69 70
337 336 335 336 340 342 347 352 359 29 57 66 55 19 70 357 3 284 320 281 274 279 302 310 293 338 341 353 354 69 44 74 60 50 30 354 12 32 37 41 49 43 43 52 53 56 57 58 58 54 51 53 65 63
337 331 335 337 339 343 352 358 16 46 70 60 53 17 343 284 273 279 285 288 278 281 287 295 280 335 352 41 18 57 43 59 52 54 51 20 38 40 38 39 43 47 48 53 52 57 59 59 59 56 44 49 57 60
337 338 340 336 337 343 354 21 30 63 47 63 51 349 309 321 308 312 316 306 294 315 292 280 354 51 26 49 44 30 80 72 93 69 70 59 50 46 49 47 45 46 50 55 54 56 57 54 55 60 55 49 53 59
346 308 324 330 336 348 15 63 48 45 97 44 346 273 313 290 296 310 309 299 314 288 328 57 48 15 330 50 48 12 31 91 103 79 68 60 55 48 51 56 56 55 53 50 51 49 51 45 47 50 49 26 36 40
266 301 322 337 341 5 35 35 77 70 54 292 46 299 344 321 312 326 300 302 319 351 42 63 52 35 27 30 46 64 73 74 69 73 63 49 49 53 56 60 54 53 59 58 54 48 44 44 47 44 41 24 40 34
323 330 342 348 17 82 63 12 52 102 222 279 318 335 313 351 352 327 338 5 36 41 74 46 57 31 28 1 56 76 78 79 91 78 65 48 44 52 57 57 55 49 44 37 46 47 42 43 42 24 11 32 42 349
334 328 354 14 31 72 48 354 52 87 83 331 339 347 342 12 3 6 21 21 29 57 41 44 29 4 355 351 11 68 90 101 104 90 68 47 39 49 52 50 44 39 39 27 21 56 29 19 14 6 358 20 29 341
349 333 357 26 39 63 93 356 25 120 260 40 308 339 3 332 25 20 18 350 45 32 54 28 25 30 28 43 33 49 48 57 57 60 94 84 45 53 51 41 34 48 44 23 22 1 23 3 328 324 352 328 331 325
299 359 30 12 67 19 74 298 150 265 76 259 5 341 26 14 360 17 350 34 50 16 7 6 21 35 45 40 30 35 45 59 57 67 62 69 52 41 44 38 39 21 12 13 4 353 340 322 325 28 359 326 348 320
359 30 36 27 64 44 279 42 59 356 63 322 8 37 18 11 4 331 61 44 55 9 1 14 31 38 53 38 47 41 31 50 58 48 52 54 46 38 42 40 36 26 15 5 353 335 327 346 330 356 340 340 334 326
30 51 51 50 56 272 2 13 23 32 36 25 40 32 5 334 327 57 65 44 40 6 23 22 13 21 24 33 39 29 13 9 46 46 18 38 55 17 5 20 10 12 4 332 322 320 322 319 345 331 321 317 320 312
66 338 64 349 330 49 30 6 348 42 50 335 58 1 335 332 65 63 97 222 69 4 24 13 37 45 73 11 35 27 23 19 26 77 332 44 47 4 9 351 347 309 333 339 346 335 323 313 308 306 310 305 299 303
72 309 72 259 318 81 171 37 10 207 100 32 293 270 3 81 72 165 172 148 135 104 24 19 11 19 30 29 316 323 319 333 14 81 296 85 108 107 360 358 339 312 342 313 291 308 308 302 294 308 311 317 328 342
67 336 331 25 116 98 58 34 33 86 74 112 284 13 55 75 205 218 119 63 105 113 344 340 9 2 314 318 317 321 311 253 218 206 278 299 252 215 127 352 312 290 307 328 306 301 310 317 315 313 304 298 279 274
123 52 66 305 55 23 119 56 64 135 249 266 66 42 147 178 174 102 96 113 109 74 45 26 53 38 266 250 274 308 318 333 12 22 353 330 275 237 234 291 266 328 340 322 331 330 322 309 304 309 308 311 308 293
47 5 93 20 22 41 91 143 211 286 2 106 130 217 235 254 241 180 96 53 78 81 58 25 325 1 8 7 270 299 354 12 84 63 53 307 333 304 322 323 316 307 309 318 333 340 324 326 341 335 336 320 310 305
7 11 84 50 85 30 253 159 220 247 44 143 225 16 12 330 271 211 94 51 74 108 224 206 278 54 98 58 327 330 292 139 101 122 152 263 257 293 305 301 301 299 298 317 320 322 336 346 339 340 339 337 336 326
336 36 68 63 127 253 228 228 350 57 36 24 339 132 206 275 299 235 171 164 135 108 78 21 350 212 123 30 120 9 325 290 220 243 249 255 266 277 281 282 281 276 292 303 312 318 326 327 331 330 331 337 336 348
9 53 115 89 292 299 71 61 33 55 348 35 332 349 357 38 306 276 210 117 78 84 233 152 145 283 222 228 231 235 264 261 272 266 281 273 273 270 272 274 259 271 290 296 305 304 314 318 312 324 324 331 333 334
17 31 49 83 47 323 308 81 19 355 22 21 319 275 231 189 229 259 287 182 165 179 198 216 237 263 264 257 248 266 297 249 293 320 321 311 311 320 316 187 257 261 291 305 303 302 315 313 306 319 326 330 328 330